Regional Weather Roundup
Issued by NWS

Home | Current Version | Previous Version | Text Only | Print | Product List | Glossary On
Versions: 1 2 3 4 5 6 7 8 9 10 11 12 13 14 15 16 17 18 19 20 21 22 23 24 25 26 27 28 29 30 31 32 33 34 35 36 37 38 39 40 41 42 43 44 45 46 47 48 49
000
ASUS45 KBOI 280410
RWRID

IDAHO REGIONAL WEATHER ROUNDUP
NATIONAL WEATHER SERVICE BOISE ID
1000 PM MDT WED MAY 27 2015

NOTE: "FAIR" INDICATES FEW OR NO CLOUDS BELOW 12000 FEET
WITH NO SIGNIFICANT WEATHER AND/OR OBSTRUCTIONS TO VISIBILITY

IDZ012-014-280500-
SOUTHWEST IDAHO


CITY           SKY/WX    TMP DP  RH WIND       PRES   REMARKS
BOISE          CLEAR     65  41  41 NW6       29.98R
CALDWELL       CLEAR     64  39  39 NW7       29.99R
$$

IDZ016-017-280500-
SOUTHCENTRAL IDAHO


CITY           SKY/WX    TMP DP  RH WIND       PRES   REMARKS
BURLEY         CLOUDY    53  45  74 S9        30.03F
JEROME         PTCLDY    53  48  83 SE7       30.03R
TWIN FALLS     MOCLDY    55  47  74 S9        30.01R
$$

IDZ019>023-280500-
SOUTHEAST IDAHO


CITY           SKY/WX    TMP DP  RH WIND       PRES   REMARKS
IDAHO FALLS    CLOUDY    50  45  83 N8        30.10R
POCATELLO      CLOUDY    55  47  74 NW12      30.09R
REXBURG        LGT RAIN  48  44  86 E8        30.08R
$$

IDZ006-010-011-018-031-032-280500-
CENTRAL IDAHO MOUNTAINS


CITY           SKY/WX    TMP DP  RH WIND       PRES   REMARKS
MCCALL         MOCLDY    52  41  66 NE7       30.05R
HAILEY         MOCLDY    52  46  82 SE12      30.07R
STANLEY          N/A     42  39  89 N5        30.14R
SALMON         CLOUDY    52  45  76 NW5       30.05R
CHALLIS        CLEAR     51  37  58 NW9       30.06R
$$

IDZ002-004-006-007-026-280500-
NORTHERN IDAHO


CITY           SKY/WX    TMP DP  RH WIND       PRES   REMARKS
LEWISTON       PTCLDY    64  50  60 E7        29.98R
LOWELL           N/A     56  52  86 CALM      30.02R
COEUR D`ALENE  CLEAR     59  48  67 CALM      29.97R
MULLAN PASS    PTCLDY    46  42  86 NW5       30.09R
$$


USA.gov is the U.S. government's official web portal to all federal, state and local government web resources and services.